Voltar ao catálogo

OPS 4682 DEB

AtivoPO
NORAD 55120·DEBRIS·🇺🇸 United States

Lançado Apr 3, 1965 de Vandenberg Space Force Base

Loading…

Próximas Passagens (próximas 24 horas)

TLE

AtualizadoSource: Space-Track

Época: Sep 12, 2026, 07:50 UTC

1 55120U 65027HK  26255.32655007  .00000448  00000-0  15205-2 0  9992
2 55120  90.2587  19.2510 0025147 245.1532 114.6973 12.97235491335932

Acompanhe OPS 4682 DEB em tempo real com AllMySat

Download on the App Store